| time (UTC) | temp C | wind direction | speed KPH | gust KPH | rain 1hr cm | rain 24hr cm | rain mn cm | humidity % | barometer mb |
| 20260509114017 | 10 | 180 | 3.2 | 8.0 | 0.00 | 1.78 | 1.19 | 94 | 1008.0 |
| 20260509113517 | 10 | 158 | 3.2 | 8.0 | 0.00 | 1.78 | 1.19 | 94 | 1008.0 |
| 20260509113037 | 10 | 158 | 3.2 | 9.7 | 0.00 | 1.78 | 1.19 | 94 | 1007.9 |
| 20260509112517 | 10 | 158 | 1.6 | 8.0 | 0.00 | 1.78 | 1.19 | 94 | 1007.9 |
| 20260509112017 | 10 | 158 | 3.2 | 6.4 | 0.00 | 1.78 | 1.19 | 94 | 1007.9 |
| 20260509111517 | 10 | 158 | 3.2 | 9.7 | 0.00 | 1.78 | 1.19 | 94 | 1007.9 |
| 20260509111017 | 10 | 180 | 3.2 | 12.9 | 0.00 | 1.78 | 1.19 | 94 | 1007.8 |
| 20260509110517 | 10 | 180 | 4.8 | 11.3 | 0.03 | 1.78 | 1.19 | 94 | 1007.8 |
| 20260509110017 | 10 | 180 | 3.2 | 8.0 | 0.03 | 1.78 | 1.19 | 94 | 1007.8 |
| 20260509105516 | 10 | 180 | 3.2 | 6.4 | 0.05 | 1.78 | 1.19 | 94 | 1007.7 |
| 20260509105017 | 10 | 180 | 3.2 | 11.3 | 0.05 | 1.78 | 1.19 | 94 | 1007.6 |
| 20260509104517 | 10 | 180 | 3.2 | 9.7 | 0.05 | 1.78 | 1.19 | 94 | 1007.6 |
| 20260509104017 | 10 | 180 | 3.2 | 9.7 | 0.05 | 1.78 | 1.19 | 94 | 1007.7 |
| 20260509103516 | 10 | 180 | 3.2 | 6.4 | 0.05 | 1.78 | 1.19 | 94 | 1007.6 |
| 20260509103016 | 10 | 158 | 3.2 | 9.7 | 0.05 | 1.78 | 1.19 | 94 | 1007.6 |
| 20260509102517 | 10 | 180 | 3.2 | 6.4 | 0.05 | 1.80 | 1.19 | 94 | 1007.6 |
| 20260509102017 | 10 | 180 | 3.2 | 6.4 | 0.05 | 1.80 | 1.19 | 94 | 1007.6 |
| 20260509101517 | 10 | 180 | 3.2 | 9.7 | 0.05 | 1.80 | 1.19 | 94 | 1007.6 |
| 20260509101017 | 10 | 180 | 1.6 | 4.8 | 0.05 | 1.80 | 1.19 | 94 | 1007.6 |
| 20260509100517 | 10 | 180 | 3.2 | 11.3 | 0.03 | 1.78 | 1.17 | 94 | 1007.7 |
| 20260509100017 | 10 | 180 | 3.2 | 9.7 | 0.03 | 1.78 | 1.17 | 94 | 1007.7 |
| 20260509095517 | 10 | 180 | 3.2 | 8.0 | 0.00 | 1.75 | 1.14 | 94 | 1007.8 |
| 20260509095016 | 10 | 180 | 1.6 | 3.2 | 0.00 | 1.75 | 1.14 | 94 | 1007.8 |
| 20260509094517 | 10 | 180 | 3.2 | 8.0 | 0.00 | 1.75 | 1.14 | 94 | 1007.9 |
| 20260509094037 | 10 | 180 | 1.6 | 6.4 | 0.00 | 1.75 | 1.14 | 94 | 1007.9 |
| 20260509093557 | 10 | 180 | 1.6 | 4.8 | 0.00 | 1.75 | 1.14 | 94 | 1008.0 |
| 20260509093017 | 10 | 180 | 1.6 | 4.8 | 0.00 | 1.75 | 1.14 | 94 | 1008.1 |
| 20260509092517 | 10 | 180 | 3.2 | 11.3 | 0.00 | 1.75 | 1.14 | 94 | 1008.1 |
| 20260509092017 | 10 | 180 | 1.6 | 6.4 | 0.00 | 1.75 | 1.14 | 94 | 1008.1 |
| 20260509091517 | 10 | 180 | 1.6 | 6.4 | 0.00 | 1.75 | 1.14 | 94 | 1008.1 |
| 20260509091017 | 10 | 180 | 3.2 | 11.3 | 0.00 | 1.75 | 1.14 | 93 | 1008.1 |
| 20260509090536 | 10 | 158 | 3.2 | 8.0 | 0.00 | 1.75 | 1.14 | 93 | 1008.1 |
| 20260509090057 | 10 | 180 | 4.8 | 8.0 | 0.00 | 1.75 | 1.14 | 93 | 1008.2 |
| 20260509085517 | 10 | 180 | 1.6 | 6.4 | 0.00 | 1.75 | 1.14 | 94 | 1008.3 |
| 20260509085016 | 10 | 180 | 3.2 | 11.3 | 0.00 | 1.75 | 1.14 | 93 | 1008.2 |
| 20260509084556 | 10 | 158 | 3.2 | 6.4 | 0.00 | 1.75 | 1.14 | 93 | 1008.2 |
| 20260509084017 | 10 | 158 | 1.6 | 4.8 | 0.00 | 1.75 | 1.14 | 93 | 1008.2 |
| 20260509083517 | 10 | 158 | 3.2 | 6.4 | 0.03 | 1.75 | 1.14 | 93 | 1008.3 |
| 20260509083017 | 10 | 158 | 3.2 | 11.3 | 0.05 | 1.75 | 1.14 | 93 | 1008.3 |
| 20260509082516 | 10 | 158 | 3.2 | 9.7 | 0.08 | 1.75 | 1.14 | 93 | 1008.3 |
| 20260509082017 | 10 | 158 | 4.8 | 9.7 | 0.13 | 1.75 | 1.14 | 93 | 1008.3 |
| 20260509081537 | 10 | 158 | 3.2 | 6.4 | 0.15 | 1.75 | 1.14 | 93 | 1008.4 |
| 20260509081016 | 10 | 158 | 4.8 | 9.7 | 0.18 | 1.75 | 1.14 | 93 | 1008.4 |
| 20260509080516 | 10 | 180 | 4.8 | 11.3 | 0.25 | 1.75 | 1.14 | 93 | 1008.4 |
| 20260509080037 | 10 | 180 | 3.2 | 8.0 | 0.25 | 1.75 | 1.14 | 93 | 1008.5 |
| 20260509075517 | 10 | 180 | 3.2 | 6.4 | 0.36 | 1.75 | 1.14 | 93 | 1008.5 |
| 20260509075017 | 10 | 180 | 4.8 | 9.7 | 0.43 | 1.75 | 1.14 | 93 | 1008.6 |
| 20260509074536 | 10 | 180 | 3.2 | 8.0 | 0.46 | 1.75 | 1.14 | 93 | 1008.7 |
| 20260509074016 | 10 | 180 | 4.8 | 12.9 | 0.46 | 1.75 | 1.14 | 93 | 1008.6 |
| 20260509073537 | 10 | 180 | 3.2 | 9.7 | 0.43 | 1.73 | 1.12 | 93 | 1008.6 |
| 20260509073017 | 10 | 158 | 3.2 | 8.0 | 0.43 | 1.70 | 1.09 | 94 | 1008.8 |
| 20260509072516 | 10 | 158 | 3.2 | 8.0 | 0.41 | 1.68 | 1.07 | 94 | 1008.7 |
| 20260509072036 | 10 | 180 | 3.2 | 6.4 | 0.38 | 1.63 | 1.02 | 93 | 1008.8 |
| 20260509071536 | 10 | 0.0 | 3.2 | 0.36 | 1.60 | 0.99 | 93 | 1008.8 | |
| 20260509071037 | 10 | 0.0 | 3.2 | 0.36 | 1.57 | 0.97 | 93 | 1008.9 | |
| 20260509070517 | 10 | 180 | 1.6 | 6.4 | 0.33 | 1.50 | 0.89 | 93 | 1008.9 |
| 20260509070017 | 10 | 203 | 1.6 | 9.7 | 0.33 | 1.50 | 0.89 | 93 | 1009.0 |
| 20260509065537 | 10 | 203 | 3.2 | 6.4 | 0.25 | 1.40 | 0.79 | 93 | 1009.1 |
| 20260509065036 | 10 | 203 | 3.2 | 11.3 | 0.18 | 1.32 | 0.71 | 93 | 1009.0 |
| 20260509064516 | 10 | 203 | 3.2 | 12.9 | 0.15 | 1.30 | 0.69 | 93 | 1009.1 |
| 20260509064017 | 10 | 180 | 3.2 | 9.7 | 0.18 | 1.30 | 0.69 | 93 | 1009.1 |
| 20260509063516 | 10 | 180 | 1.6 | 8.0 | 0.20 | 1.30 | 0.69 | 93 | 1009.1 |
| 20260509063017 | 10 | 180 | 3.2 | 9.7 | 0.20 | 1.27 | 0.66 | 93 | 1009.0 |
| 20260509062517 | 10 | 180 | 4.8 | 11.3 | 0.20 | 1.27 | 0.66 | 93 | 1008.9 |
| 20260509062056 | 9 | 180 | 3.2 | 11.3 | 0.18 | 1.24 | 0.64 | 93 | 1008.9 |
| 20260509061516 | 9 | 180 | 3.2 | 6.4 | 0.18 | 1.24 | 0.64 | 93 | 1009.0 |
| 20260509061017 | 9 | 180 | 4.8 | 8.0 | 0.18 | 1.22 | 0.61 | 93 | 1009.1 |
| 20260509060537 | 9 | 180 | 3.2 | 11.3 | 0.20 | 1.17 | 0.56 | 93 | 1009.3 |
| 20260509060016 | 9 | 135 | 3.2 | 6.4 | 0.28 | 1.17 | 0.56 | 93 | 1009.3 |
| 20260509055516 | 9 | 135 | 3.2 | 8.0 | 0.33 | 1.14 | 0.53 | 93 | 1009.4 |
| 20260509055017 | 9 | 135 | 1.6 | 6.4 | 0.43 | 1.14 | 0.53 | 93 | 1009.6 |
| 20260509054516 | 9 | 135 | 3.2 | 8.0 | 0.46 | 1.14 | 0.53 | 93 | 1009.8 |
| 20260509054017 | 9 | 180 | 1.6 | 3.2 | 0.43 | 1.12 | 0.51 | 93 | 1009.8 |
| 20260509053516 | 9 | 180 | 1.6 | 4.8 | 0.43 | 1.09 | 0.48 | 93 | 1009.8 |
| 20260509053016 | 9 | 180 | 1.6 | 4.8 | 0.41 | 1.07 | 0.46 | 93 | 1009.9 |
| 20260509052517 | 9 | 180 | 1.6 | 3.2 | 0.43 | 1.07 | 0.46 | 93 | 1010.0 |
| 20260509052017 | 9 | 180 | 1.6 | 4.8 | 0.43 | 1.07 | 0.46 | 93 | 1010.0 |
| 20260509051537 | 9 | 180 | 3.2 | 6.4 | 0.43 | 1.07 | 0.46 | 93 | 1010.0 |
| 20260509051016 | 9 | 180 | 4.8 | 14.5 | 0.41 | 1.04 | 0.43 | 93 | 1009.9 |
| 20260509050516 | 9 | 180 | 6.4 | 11.3 | 0.33 | 0.97 | 0.36 | 93 | 1010.1 |
| 20260509050016 | 9 | 180 | 6.4 | 11.3 | 0.28 | 0.89 | 0.28 | 93 | 1010.0 |
| 20260509045516 | 9 | 158 | 3.2 | 9.7 | 0.23 | 0.81 | 0.20 | 92 | 1010.0 |
| 20260509045016 | 9 | 158 | 3.2 | 8.0 | 0.13 | 0.71 | 0.10 | 92 | 1010.1 |
| 20260509044516 | 9 | 158 | 1.6 | 6.4 | 0.10 | 0.69 | 0.08 | 92 | 1010.1 |
| 20260509044016 | 9 | 158 | 1.6 | 4.8 | 0.10 | 0.69 | 0.08 | 92 | 1010.0 |
| 20260509043537 | 9 | 158 | 1.6 | 4.8 | 0.08 | 0.66 | 0.05 | 92 | 1010.1 |
| 20260509043016 | 9 | 158 | 1.6 | 3.2 | 0.08 | 0.66 | 0.05 | 93 | 1010.1 |
| 20260509042516 | 9 | 158 | 1.6 | 3.2 | 0.05 | 0.64 | 0.03 | 92 | 1010.1 |
| 20260509042016 | 9 | 158 | 3.2 | 4.8 | 0.05 | 0.64 | 0.03 | 93 | 1010.1 |
| 20260509041537 | 9 | 158 | 1.6 | 6.4 | 0.05 | 0.64 | 0.03 | 93 | 1010.2 |
| 20260509041016 | 9 | 158 | 1.6 | 6.4 | 0.05 | 0.64 | 0.03 | 93 | 1010.2 |
| 20260509040536 | 9 | 158 | 3.2 | 6.4 | 0.08 | 0.64 | 0.03 | 93 | 1010.4 |
| 20260509040016 | 9 | 158 | 1.6 | 4.8 | 0.05 | 0.61 | 0.61 | 93 | 1010.5 |
| 20260509035517 | 9 | 135 | 1.6 | 6.4 | 0.03 | 0.58 | 0.58 | 93 | 1010.7 |
| 20260509035017 | 9 | 0.0 | 3.2 | 0.03 | 0.58 | 0.58 | 92 | 1010.6 | |
| 20260509034517 | 9 | 135 | 1.6 | 6.4 | 0.03 | 0.58 | 0.58 | 92 | 1010.6 |
| 20260509034016 | 9 | 158 | 1.6 | 6.4 | 0.03 | 0.58 | 0.58 | 92 | 1010.6 |
| 20260509033516 | 9 | 158 | 3.2 | 4.8 | 0.03 | 0.58 | 0.58 | 92 | 1010.6 |
| 20260509033037 | 9 | 158 | 3.2 | 4.8 | 0.03 | 0.58 | 0.58 | 92 | 1010.7 |
| 20260509032517 | 9 | 158 | 1.6 | 3.2 | 0.03 | 0.58 | 0.58 | 92 | 1010.8 |
| 20260509032016 | 9 | 158 | 1.6 | 4.8 | 0.05 | 0.58 | 0.58 | 92 | 1011.0 |
| 20260509031556 | 9 | 158 | 3.2 | 6.4 | 0.05 | 0.58 | 0.58 | 92 | 1011.2 |
| 20260509031016 | 9 | 135 | 1.6 | 6.4 | 0.05 | 0.58 | 0.58 | 92 | 1011.3 |
| 20260509030516 | 9 | 135 | 3.2 | 8.0 | 0.05 | 0.56 | 0.56 | 92 | 1011.3 |
| 20260509030016 | 9 | 158 | 3.2 | 4.8 | 0.05 | 0.56 | 0.56 | 92 | 1011.3 |
| 20260509025516 | 9 | 158 | 1.6 | 4.8 | 0.05 | 0.56 | 0.56 | 92 | 1011.3 |
| 20260509025016 | 9 | 135 | 4.8 | 12.9 | 0.05 | 0.56 | 0.56 | 92 | 1011.2 |
| 20260509024516 | 8 | 135 | 3.2 | 6.4 | 0.08 | 0.56 | 0.56 | 92 | 1011.2 |
| 20260509024016 | 8 | 135 | 3.2 | 4.8 | 0.08 | 0.56 | 0.56 | 92 | 1011.3 |
| 20260509023516 | 8 | 135 | 3.2 | 6.4 | 0.08 | 0.56 | 0.56 | 92 | 1011.3 |
| 20260509023016 | 8 | 135 | 3.2 | 4.8 | 0.08 | 0.56 | 0.56 | 92 | 1011.4 |
| 20260509022516 | 8 | 135 | 1.6 | 6.4 | 0.10 | 0.56 | 0.56 | 92 | 1011.3 |
| 20260509022016 | 8 | 135 | 3.2 | 4.8 | 0.08 | 0.53 | 0.53 | 92 | 1011.2 |
| 20260509021517 | 8 | 135 | 3.2 | 6.4 | 0.08 | 0.53 | 0.53 | 92 | 1011.1 |
| 20260509021016 | 8 | 135 | 1.6 | 4.8 | 0.08 | 0.53 | 0.51 | 92 | 1011.0 |
| 20260509020516 | 8 | 135 | 3.2 | 6.4 | 0.08 | 0.51 | 0.51 | 92 | 1011.0 |
| 20260509020016 | 8 | 135 | 3.2 | 8.0 | 0.08 | 0.51 | 0.51 | 92 | 1011.1 |
| 20260509015537 | 8 | 135 | 4.8 | 8.0 | 0.08 | 0.51 | 0.51 | 92 | 1011.1 |
| 20260509015016 | 8 | 135 | 4.8 | 6.4 | 0.08 | 0.51 | 0.51 | 92 | 1011.1 |
| 20260509014556 | 8 | 135 | 3.2 | 6.4 | 0.05 | 0.48 | 0.48 | 92 | 1011.2 |
| 20260509014016 | 8 | 135 | 3.2 | 6.4 | 0.08 | 0.48 | 0.48 | 92 | 1011.1 |
| 20260509013516 | 8 | 135 | 3.2 | 6.4 | 0.08 | 0.48 | 0.48 | 92 | 1011.1 |
| 20260509013016 | 8 | 113 | 3.2 | 4.8 | 0.08 | 0.48 | 0.48 | 92 | 1011.1 |
| 20260509012516 | 8 | 113 | 3.2 | 4.8 | 0.05 | 0.46 | 0.46 | 92 | 1011.0 |
| 20260509012016 | 8 | 113 | 3.2 | 6.4 | 0.08 | 0.46 | 0.46 | 92 | 1010.9 |
| 20260509011516 | 8 | 113 | 3.2 | 6.4 | 0.08 | 0.46 | 0.46 | 91 | 1010.9 |
| 20260509011016 | 8 | 135 | 3.2 | 4.8 | 0.10 | 0.46 | 0.46 | 92 | 1010.9 |
| 20260509010516 | 8 | 135 | 3.2 | 4.8 | 0.08 | 0.43 | 0.43 | 92 | 1010.9 |
| 20260509010016 | 8 | 135 | 1.6 | 4.8 | 0.08 | 0.43 | 0.43 | 91 | 1010.9 |
| 20260509005536 | 8 | 315 | 1.6 | 3.2 | 0.10 | 0.43 | 0.43 | 91 | 1010.9 |
| 20260509005016 | 8 | 315 | 1.6 | 3.2 | 0.10 | 0.43 | 0.43 | 91 | 1010.8 |
| 20260509004516 | 9 | 0.0 | 3.2 | 0.13 | 0.43 | 0.43 | 91 | 1010.8 | |
| 20260509004016 | 9 | 0.0 | 0.0 | 0.10 | 0.41 | 0.41 | 91 | 1010.8 | |
| 20260509003516 | 9 | 0.0 | 3.2 | 0.13 | 0.41 | 0.41 | 91 | 1010.8 | |
| 20260509003016 | 9 | 0.0 | 3.2 | 0.13 | 0.41 | 0.41 | 91 | 1010.7 | |
| 20260509002516 | 9 | 315 | 1.6 | 3.2 | 0.15 | 0.41 | 0.41 | 91 | 1010.8 |
| 20260509002016 | 9 | 315 | 1.6 | 3.2 | 0.13 | 0.38 | 0.38 | 91 | 1010.7 |
| 20260509001516 | 9 | 315 | 1.6 | 6.4 | 0.13 | 0.38 | 0.38 | 91 | 1010.9 |
| 20260509001037 | 9 | 0 | 1.6 | 3.2 | 0.10 | 0.36 | 0.36 | 91 | 1010.7 |
| 20260509000516 | 9 | 0.0 | 3.2 | 0.10 | 0.36 | 0.36 | 91 | 1010.9 | |
| 20260509000016 | 9 | 0 | 1.6 | 3.2 | 0.10 | 0.36 | 0.36 | 91 | 1010.9 |
| 20260508235516 | 9 | 0.0 | 3.2 | 0.08 | 0.33 | 0.33 | 90 | 1011.0 | |
| 20260508235016 | 9 | 0.0 | 3.2 | 0.08 | 0.33 | 0.33 | 90 | 1010.9 | |
| 20260508234516 | 9 | 0 | 1.6 | 3.2 | 0.08 | 0.30 | 0.30 | 90 | 1010.8 |
| 20260508234016 | 9 | 0.0 | 3.2 | 0.08 | 0.30 | 0.30 | 90 | 1011.0 | |
| 20260508233516 | 9 | 0.0 | 3.2 | 0.05 | 0.28 | 0.28 | 89 | 1011.0 | |
| 20260508233037 | 9 | 0 | 1.6 | 3.2 | 0.05 | 0.28 | 0.28 | 89 | 1010.8 |
| 20260508232516 | 10 | 0 | 1.6 | 3.2 | 0.03 | 0.25 | 0.25 | 88 | 1010.6 |
| 20260508232037 | 10 | 0 | 1.6 | 4.8 | 0.03 | 0.25 | 0.25 | 88 | 1010.5 |
| 20260508231516 | 10 | 0.0 | 1.6 | 0.03 | 0.25 | 0.25 | 87 | 1010.3 | |
| 20260508231036 | 10 | 23 | 1.6 | 4.8 | 0.03 | 0.25 | 0.25 | 87 | 1010.2 |
| 20260508230516 | 10 | 23 | 1.6 | 3.2 | 0.03 | 0.25 | 0.25 | 87 | 1010.2 |
| 20260508230016 | 10 | 0.0 | 3.2 | 0.03 | 0.25 | 0.25 | 86 | 1010.2 | |
| 20260508225516 | 10 | 0.0 | 1.6 | 0.03 | 0.25 | 0.25 | 86 | 1010.2 | |
| 20260508225036 | 10 | 0.0 | 3.2 | 0.03 | 0.25 | 0.25 | 85 | 1010.4 | |
| 20260508224516 | 10 | 23 | 1.6 | 4.8 | 0.00 | 0.23 | 0.23 | 85 | 1010.3 |
| 20260508224016 | 10 | 23 | 1.6 | 3.2 | 0.00 | 0.23 | 0.23 | 86 | 1010.4 |
| 20260508223516 | 10 | 0.0 | 3.2 | 0.00 | 0.23 | 0.23 | 86 | 1010.4 | |
| 20260508223016 | 10 | 68 | 1.6 | 3.2 | 0.00 | 0.23 | 0.23 | 88 | 1010.5 |
| 20260508222537 | 10 | 0.0 | 3.2 | 0.00 | 0.23 | 0.23 | 88 | 1010.5 | |
| 20260508222016 | 10 | 0.0 | 0.0 | 0.00 | 0.23 | 0.23 | 87 | 1010.4 | |
| 20260508221516 | 10 | 0.0 | 0.0 | 0.00 | 0.23 | 0.23 | 86 | 1010.2 | |
| 20260508221016 | 10 | 0.0 | 0.0 | 0.00 | 0.23 | 0.23 | 87 | 1010.2 | |
| 20260508220537 | 10 | 0.0 | 1.6 | 0.00 | 0.23 | 0.23 | 87 | 1010.2 | |
| 20260508220016 | 10 | 90 | 1.6 | 3.2 | 0.00 | 0.23 | 0.23 | 86 | 1010.0 |
| 20260508215516 | 10 | 90 | 4.8 | 6.4 | 0.00 | 0.23 | 0.23 | 86 | 1009.7 |
| 20260508215016 | 10 | 90 | 3.2 | 4.8 | 0.00 | 0.23 | 0.23 | 86 | 1009.7 |
| 20260508214536 | 10 | 90 | 4.8 | 9.7 | 0.00 | 0.23 | 0.23 | 86 | 1009.8 |
| 20260508214016 | 10 | 90 | 4.8 | 9.7 | 0.00 | 0.23 | 0.23 | 86 | 1009.9 |
| 20260508213515 | 10 | 68 | 4.8 | 9.7 | 0.00 | 0.23 | 0.23 | 85 | 1010.0 |
| 20260508213015 | 10 | 270 | 3.2 | 6.4 | 0.00 | 0.23 | 0.23 | 86 | 1010.0 |
| 20260508212515 | 10 | 270 | 3.2 | 4.8 | 0.00 | 0.23 | 0.23 | 86 | 1010.2 |
| 20260508212056 | 10 | 270 | 1.6 | 3.2 | 0.00 | 0.23 | 0.23 | 88 | 1010.3 |
| 20260508211516 | 10 | 270 | 1.6 | 3.2 | 0.00 | 0.23 | 0.23 | 87 | 1010.4 |
| 20260508211016 | 10 | 0.0 | 3.2 | 0.00 | 0.23 | 0.23 | 87 | 1010.4 | |
| 20260508210516 | 10 | 0.0 | 3.2 | 0.03 | 0.23 | 0.23 | 86 | 1010.4 | |
| 20260508210016 | 10 | 270 | 1.6 | 3.2 | 0.03 | 0.23 | 0.23 | 84 | 1010.4 |
| 20260508205556 | 10 | 270 | 1.6 | 3.2 | 0.05 | 0.23 | 0.23 | 85 | 1010.5 |
| 20260508205016 | 10 | 0.0 | 0.0 | 0.05 | 0.23 | 0.23 | 86 | 1010.6 | |
| 20260508204516 | 10 | 0.0 | 0.0 | 0.05 | 0.23 | 0.23 | 85 | 1010.7 | |
| 20260508204016 | 10 | 0.0 | 0.0 | 0.08 | 0.23 | 0.23 | 85 | 1010.8 | |
| 20260508203556 | 10 | 0.0 | 0.0 | 0.10 | 0.23 | 0.23 | 86 | 1011.0 | |
| 20260508203016 | 10 | 270 | 1.6 | 3.2 | 0.10 | 0.23 | 0.23 | 86 | 1011.0 |
| 20260508202516 | 10 | 270 | 1.6 | 4.8 | 0.13 | 0.23 | 0.23 | 86 | 1011.2 |
| 20260508202016 | 10 | 0.0 | 3.2 | 0.13 | 0.23 | 0.23 | 86 | 1011.3 | |
| 20260508201516 | 10 | 0.0 | 3.2 | 0.13 | 0.23 | 0.23 | 86 | 1011.4 | |
| 20260508201036 | 10 | 0.0 | 1.6 | 0.13 | 0.23 | 0.23 | 87 | 1011.6 | |
| 20260508200515 | 10 | 0.0 | 3.2 | 0.10 | 0.20 | 0.20 | 86 | 1011.4 | |
| 20260508200015 | 10 | 0.0 | 3.2 | 0.10 | 0.20 | 0.20 | 86 | 1011.6 | |
| 20260508195555 | 10 | 270 | 1.6 | 6.4 | 0.08 | 0.18 | 0.18 | 85 | 1011.7 |
| 20260508195015 | 10 | 248 | 1.6 | 4.8 | 0.08 | 0.18 | 0.18 | 84 | 1011.9 |
| 20260508194516 | 10 | 248 | 1.6 | 8.0 | 0.08 | 0.18 | 0.18 | 83 | 1011.8 |
| 20260508194016 | 10 | 180 | 3.2 | 8.0 | 0.05 | 0.15 | 0.15 | 82 | 1011.9 |
| 20260508193516 | 10 | 203 | 4.8 | 11.3 | 0.03 | 0.13 | 0.13 | 80 | 1012.0 |
| 20260508193056 | 10 | 248 | 4.8 | 12.9 | 0.03 | 0.13 | 0.13 | 79 | 1012.0 |
| 20260508192556 | 11 | 225 | 4.8 | 14.5 | 0.00 | 0.10 | 0.10 | 77 | 1012.0 |
| 20260508192016 | 11 | 203 | 4.8 | 20.9 | 0.00 | 0.10 | 0.10 | 77 | 1012.0 |
| 20260508191516 | 11 | 203 | 4.8 | 19.3 | 0.00 | 0.10 | 0.10 | 76 | 1011.9 |
| 20260508191015 | 11 | 180 | 6.4 | 19.3 | 0.00 | 0.10 | 0.10 | 75 | 1011.9 |
| 20260508190516 | 12 | 158 | 6.4 | 17.7 | 0.00 | 0.10 | 0.10 | 75 | 1011.8 |
| 20260508190016 | 12 | 180 | 4.8 | 14.5 | 0.03 | 0.10 | 0.10 | 76 | 1011.8 |
| 20260508185515 | 12 | 180 | 6.4 | 14.5 | 0.05 | 0.10 | 0.10 | 77 | 1011.8 |
| 20260508185036 | 12 | 180 | 6.4 | 14.5 | 0.05 | 0.10 | 0.10 | 76 | 1012.0 |
| 20260508184515 | 12 | 180 | 11.3 | 19.3 | 0.08 | 0.10 | 0.10 | 76 | 1012.0 |
| 20260508184016 | 12 | 180 | 6.4 | 19.3 | 0.08 | 0.10 | 0.10 | 80 | 1012.0 |
| 20260508183515 | 11 | 180 | 6.4 | 12.9 | 0.08 | 0.10 | 0.10 | 84 | 1012.0 |
| 20260508183015 | 11 | 180 | 6.4 | 12.9 | 0.08 | 0.10 | 0.10 | 81 | 1012.0 |
| 20260508182516 | 11 | 203 | 4.8 | 12.9 | 0.08 | 0.10 | 0.10 | 83 | 1012.1 |
| 20260508182016 | 10 | 158 | 4.8 | 12.9 | 0.08 | 0.10 | 0.10 | 82 | 1012.1 |
| 20260508181516 | 10 | 158 | 4.8 | 11.3 | 0.08 | 0.10 | 0.10 | 82 | 1012.1 |
| 20260508181016 | 10 | 180 | 6.4 | 17.7 | 0.08 | 0.10 | 0.10 | 81 | 1012.1 |
| 20260508180515 | 10 | 180 | 6.4 | 19.3 | 0.08 | 0.10 | 0.10 | 80 | 1012.3 |
| 20260508180015 | 10 | 203 | 3.2 | 8.0 | 0.05 | 0.08 | 0.08 | 81 | 1012.4 |
| 20260508175515 | 11 | 225 | 3.2 | 8.0 | 0.03 | 0.05 | 0.05 | 78 | 1012.5 |
| 20260508175016 | 11 | 180 | 1.6 | 9.7 | 0.03 | 0.05 | 0.05 | 78 | 1012.7 |
| 20260508174516 | 11 | 225 | 3.2 | 8.0 | 0.00 | 0.03 | 0.03 | 77 | 1012.8 |
| 20260508174016 | 11 | 270 | 1.6 | 6.4 | 0.00 | 0.03 | 0.03 | 78 | 1012.9 |
| 20260508173518 | 11 | 248 | 1.6 | 6.4 | 0.00 | 0.03 | 0.03 | 77 | 1012.9 |
| 20260508173017 | 11 | 293 | 3.2 | 6.4 | 0.00 | 0.03 | 0.03 | 76 | 1012.9 |
| 20260508172517 | 11 | 225 | 3.2 | 9.7 | 0.00 | 0.03 | 0.03 | 76 | 1012.9 |
| 20260508172038 | 11 | 203 | 1.6 | 4.8 | 0.00 | 0.03 | 0.03 | 76 | 1012.9 |
| 20260508171518 | 11 | 225 | 3.2 | 12.9 | 0.00 | 0.03 | 0.03 | 74 | 1012.9 |
| 20260508171018 | 11 | 203 | 3.2 | 16.1 | 0.00 | 0.03 | 0.03 | 73 | 1012.9 |
| 20260508170518 | 12 | 248 | 1.6 | 6.4 | 0.00 | 0.03 | 0.03 | 74 | 1013.1 |
| 20260508170018 | 12 | 248 | 3.2 | 8.0 | 0.00 | 0.03 | 0.03 | 75 | 1013.0 |
| 20260508165518 | 12 | 225 | 3.2 | 8.0 | 0.00 | 0.03 | 0.03 | 76 | 1012.8 |
| 20260508165017 | 11 | 203 | 3.2 | 14.5 | 0.00 | 0.03 | 0.03 | 75 | 1012.9 |
| 20260508164518 | 12 | 180 | 3.2 | 8.0 | 0.00 | 0.03 | 0.03 | 73 | 1012.9 |
| 20260508164017 | 12 | 158 | 3.2 | 6.4 | 0.00 | 0.03 | 0.03 | 69 | 1013.0 |
| 20260508163517 | 12 | 203 | 3.2 | 12.9 | 0.00 | 0.03 | 0.03 | 67 | 1012.9 |
| 20260508163020 | 12 | 203 | 4.8 | 14.5 | 0.00 | 0.03 | 0.03 | 66 | 1013.1 |
| 20260508162537 | 13 | 225 | 4.8 | 11.3 | 0.00 | 0.03 | 0.03 | 65 | 1013.0 |
| 20260508162017 | 13 | 315 | 3.2 | 11.3 | 0.00 | 0.03 | 0.03 | 64 | 1013.1 |
| 20260508161538 | 13 | 180 | 3.2 | 12.9 | 0.00 | 0.03 | 0.03 | 63 | 1013.1 |
| 20260508161017 | 13 | 180 | 6.4 | 20.9 | 0.00 | 0.03 | 0.03 | 64 | 1013.1 |
| 20260508160517 | 13 | 248 | 4.8 | 9.7 | 0.00 | 0.03 | 0.03 | 64 | 1013.2 |
| 20260508160038 | 13 | 203 | 6.4 | 16.1 | 0.00 | 0.03 | 0.03 | 65 | 1013.1 |
| 20260508155517 | 13 | 248 | 4.8 | 11.3 | 0.00 | 0.03 | 0.03 | 66 | 1013.3 |
| 20260508155018 | 13 | 270 | 9.7 | 20.9 | 0.00 | 0.03 | 0.03 | 65 | 1013.3 |
| 20260508154517 | 13 | 225 | 6.4 | 22.5 | 0.00 | 0.03 | 0.03 | 65 | 1013.3 |
| 20260508154018 | 13 | 270 | 6.4 | 22.5 | 0.00 | 0.03 | 0.03 | 65 | 1013.2 |
| 20260508153517 | 13 | 270 | 4.8 | 12.9 | 0.00 | 0.03 | 0.03 | 64 | 1013.2 |
| 20260508153017 | 13 | 293 | 3.2 | 17.7 | 0.00 | 0.03 | 0.03 | 65 | 1013.2 |
| 20260508152538 | 13 | 225 | 6.4 | 16.1 | 0.00 | 0.03 | 0.03 | 66 | 1013.1 |
| 20260508152017 | 12 | 293 | 6.4 | 14.5 | 0.00 | 0.03 | 0.03 | 65 | 1013.0 |
| 20260508151518 | 12 | 270 | 9.7 | 16.1 | 0.00 | 0.03 | 0.03 | 64 | 1013.0 |
| 20260508151017 | 12 | 248 | 8.0 | 16.1 | 0.00 | 0.03 | 0.03 | 63 | 1013.0 |
| 20260508150517 | 12 | 225 | 6.4 | 14.5 | 0.00 | 0.03 | 0.03 | 68 | 1013.0 |
| 20260508150017 | 12 | 248 | 6.4 | 19.3 | 0.00 | 0.03 | 0.03 | 66 | 1013.0 |
| 20260508145517 | 12 | 270 | 8.0 | 16.1 | 0.00 | 0.03 | 0.03 | 66 | 1013.0 |
| 20260508145017 | 12 | 270 | 4.8 | 17.7 | 0.00 | 0.03 | 0.03 | 67 | 1012.9 |
| 20260508144517 | 12 | 270 | 6.4 | 17.7 | 0.00 | 0.03 | 0.03 | 67 | 1013.0 |
| 20260508144017 | 12 | 270 | 8.0 | 20.9 | 0.00 | 0.03 | 0.03 | 65 | 1013.0 |
| 20260508143517 | 12 | 293 | 6.4 | 19.3 | 0.00 | 0.03 | 0.03 | 66 | 1013.0 |
| 20260508143017 | 12 | 248 | 6.4 | 12.9 | 0.00 | 0.03 | 0.03 | 68 | 1013.0 |
| 20260508142517 | 12 | 315 | 9.7 | 17.7 | 0.00 | 0.03 | 0.03 | 66 | 1013.0 |
| 20260508142017 | 12 | 315 | 9.7 | 22.5 | 0.00 | 0.03 | 0.03 | 68 | 1012.9 |
| 20260508141517 | 11 | 270 | 9.7 | 19.3 | 0.00 | 0.03 | 0.03 | 66 | 1013.1 |
| 20260508141017 | 11 | 270 | 8.0 | 22.5 | 0.00 | 0.03 | 0.03 | 67 | 1013.0 |
| 20260508140517 | 11 | 270 | 6.4 | 16.1 | 0.00 | 0.03 | 0.03 | 68 | 1013.1 |
| 20260508140017 | 11 | 270 | 6.4 | 12.9 | 0.00 | 0.03 | 0.03 | 68 | 1013.1 |
| 20260508135517 | 11 | 270 | 12.9 | 20.9 | 0.00 | 0.03 | 0.03 | 65 | 1013.1 |
| 20260508135017 | 11 | 270 | 9.7 | 17.7 | 0.00 | 0.03 | 0.03 | 66 | 1013.1 |
| 20260508134517 | 11 | 270 | 9.7 | 20.9 | 0.00 | 0.03 | 0.03 | 65 | 1013.1 |
| 20260508134017 | 11 | 270 | 9.7 | 16.1 | 0.00 | 0.03 | 0.03 | 65 | 1013.1 |
| 20260508133517 | 11 | 270 | 8.0 | 20.9 | 0.00 | 0.03 | 0.03 | 65 | 1013.1 |
| 20260508133017 | 11 | 270 | 9.7 | 24.1 | 0.00 | 0.03 | 0.03 | 65 | 1013.1 |
| 20260508132517 | 11 | 270 | 8.0 | 20.9 | 0.00 | 0.03 | 0.03 | 66 | 1013.2 |
| 20260508132037 | 11 | 270 | 11.3 | 25.7 | 0.00 | 0.03 | 0.03 | 64 | 1013.5 |
| 20260508131517 | 11 | 293 | 8.0 | 25.7 | 0.00 | 0.03 | 0.03 | 66 | 1013.4 |
| 20260508131017 | 11 | 203 | 4.8 | 12.9 | 0.00 | 0.03 | 0.03 | 65 | 1013.4 |
| 20260508130537 | 11 | 270 | 6.4 | 16.1 | 0.00 | 0.03 | 0.03 | 67 | 1013.4 |
| 20260508130017 | 11 | 270 | 6.4 | 14.5 | 0.00 | 0.03 | 0.03 | 67 | 1013.4 |
| 20260508125537 | 11 | 248 | 6.4 | 17.7 | 0.00 | 0.03 | 0.03 | 64 | 1013.5 |
| 20260508125017 | 11 | 203 | 4.8 | 16.1 | 0.00 | 0.03 | 0.03 | 66 | 1013.5 |
| 20260508124517 | 11 | 270 | 3.2 | 6.4 | 0.00 | 0.03 | 0.03 | 68 | 1013.5 |
| 20260508124017 | 11 | 293 | 1.6 | 6.4 | 0.00 | 0.03 | 0.03 | 68 | 1013.5 |
| 20260508123517 | 10 | 270 | 1.6 | 6.4 | 0.00 | 0.03 | 0.03 | 69 | 1013.4 |
| 20260508123017 | 10 | 248 | 3.2 | 12.9 | 0.00 | 0.03 | 0.03 | 72 | 1013.5 |
| 20260508122517 | 10 | 180 | 3.2 | 8.0 | 0.00 | 0.03 | 0.03 | 70 | 1013.4 |
| 20260508122017 | 10 | 203 | 3.2 | 6.4 | 0.00 | 0.03 | 0.03 | 71 | 1013.3 |
| 20260508121517 | 10 | 180 | 4.8 | 12.9 | 0.00 | 0.03 | 0.03 | 73 | 1013.1 |
| 20260508121017 | 9 | 180 | 4.8 | 14.5 | 0.00 | 0.03 | 0.03 | 74 | 1013.1 |
| 20260508120517 | 9 | 180 | 3.2 | 8.0 | 0.00 | 0.03 | 0.03 | 74 | 1013.1 |
| 20260508120017 | 8 | 180 | 6.4 | 12.9 | 0.00 | 0.03 | 0.03 | 74 | 1013.1 |
| 20260508115517 | 8 | 180 | 4.8 | 12.9 | 0.00 | 0.03 | 0.03 | 74 | 1013.2 |
| 20260508115017 | 8 | 180 | 3.2 | 12.9 | 0.00 | 0.03 | 0.03 | 75 | 1013.3 |
| 20260508114517 | 8 | 180 | 1.6 | 6.4 | 0.00 | 0.03 | 0.03 | 77 | 1013.2 |